Regional Weather Roundup
Issued by NWS New Orleans/Baton Rouge, LA

Home | Current Version | Previous Version | Graphics & Text | Print | Product List | Glossary On
Versions: 1 2 3 4 5 6 7 8 9 10 11 12 13 14 15 16 17 18 19 20 21 22 23 24 25 26 27 28 29 30 31 32 33 34 35 36 37 38 39 40 41 42 43 44 45 46 47 48 49 50
499
ASUS44 KLIX 230405
RWRLIX
NEW ORLEANS REGIONAL WEATHER ROUNDUP
NATIONAL WEATHER SERVICE NEW ORLEANS LA
1100 PM CDT TUE JUL 22 2014

NOTE: "FAIR" INDICATES FEW OR NO CLOUDS BELOW 12,000 FEET WITH NO
      SIGNIFICANT WEATHER AND/OR OBSTRUCTIONS TO VISIBILITY.
      SKY/WX - SKY CONDITION AND SIGNIFICANT WEATHER.
      TMP - AIR TEMPERATURE.     DP    - DEWPOINT TEMPERATURE.
      RH  - RELATIVE HUMIDITY.   PRES  - PRESSURE.
      HI  - HEAT INDEX.          WCI   - WIND CHILL INDEX.

*  THESE STATIONS ARE NOT NWS OR FAA STATIONS AND ARE NOT UNDER
   NWS QUALITY CONTROL.

LAZ038-040-048-061>063-065>067-069-230500-
SOUTHEAST LOUISIANA

CITY           SKY/WX    TMP DP  RH WIND       PRES   REMARKS
N.O. AUDUBON     N/A     82  73  75 MISG        N/A
N.O. INTL ARPT MOCLDY    79  71  76 E6        30.03S
N.O. LAKEFRONT MOCLDY    80  72  76 E12       30.04R
N.O. DOWNTOWN*   N/A     81  68  65 NE5       30.04S
SLIDELL        MOCLDY    73  68  84 CALM      30.03S
BATON ROUGE    PTCLDY    75  72  90 NE6       30.04R
BOOTHVILLE     PTCLDY    79  72  79 SE5       30.04S
BELLE CHASSE   PTCLDY    77  73  87 E5        30.03R
BOGALUSA*        N/A     72  69  89 N3        30.07R FOG
GALLIANO*      NOT AVBL
NEW ROADS*       N/A     73  72  96 CALM      30.04R
GONZALES*        N/A     77  76  98 CALM      30.03R
HAMMOND*       CLOUDY    77  70  78 N3        30.06R
HOUMA*         CLOUDY    76  71  84 NE6       30.02S
PORT FOURCHON* PTCLDY    82  77  83 S5        30.04R

$$

MSZ070-080>082-230500-
SOUTHERN MISSISSIPPI

CITY           SKY/WX    TMP DP  RH WIND       PRES   REMARKS
MCCOMB         CLOUDY    72  69  90 CALM      30.06R
GULFPORT       PTCLDY    77  68  73 E3        30.04S
BILOXI         PTCLDY    76  70  83 E6        30.04F
PASCAGOULA     PTCLDY    73  72  96 CALM      30.04F

$$

COASTAL OBSERVATIONS
LAKE AND NEARSHORE STATIONS

STATION/POSITION TIME  TEMP    WIND        PRES    WAVE
                       AIR SEA DIR/SP/G            HT/PER
                 (UTC) (F)     (DEG/KT/KT) (MB)    (FT/S)
PASCAGOULA       0400   78     100/  2/  4 1016.8
WAVELAND YACHT   0400   76     100/  9/ 11 1016.4
GRAND ISLE       0400   82 85  110/  3/  6 1017.5
SOUTHWEST PASS   0400   82 85  170/  5/  7 1017.7
NEW CANAL        0400   80 83   80/  5/  8 1017.4
SHELL BEACH      0400   81 81   90/  9/ 13 1016.8

OFFSHORE STATIONS

STATION/POSITION TIME  TEMP    WIND        PRES    WAVE
                       AIR SEA DIR/SP/G            HT/PER
                 (UTC) (F)     (DEG/KT/KT) (MB)    (FT/S)

$$




USA.gov is the U.S. government's official web portal to all federal, state and local government web resources and services.